Temp
64 64 64 64 64 64 65 65 64 64 64 64 65 64 64 64 65 71 76 72 74 72 70 80 80 78 79 73 72 69 57 56 58 59 63 69 66 67 67 67 66 66 61 61 64
63 64 64 64 64 64 64 64 64 64 64 64 64 64 64 64 71 75 70 72 72 71 77 77 75 75 71 69 69 62 56 60 67 67 64 68 67 68 64 66 60 60 63 65 65
63 63 63 64 64 64 64 64 63 64 64 64 64 64 63 63 70 72 71 72 72 72 79 79 78 75 67 67 65 63 58 65 67 68 69 68 63 66 62 62 62 63 61 63 63
63 63 63 63 63 64 64 64 63 63 63 63 63 63 63 72 62 73 70 72 71 75 78 75 74 67 63 62 68 58 65 67 67 65 66 64 66 62 64 57 64 62 63 62 60
62 62 62 62 63 63 63 63 63 63 63 63 63 63 71 70 71 75 68 70 76 76 75 73 70 68 62 65 64 61 64 66 67 63 63 66 61 63 60 60 62 62 63 59 58
61 61 61 61 62 63 63 63 63 63 63 63 64 62 70 64 75 79 75 72 77 76 73 73 71 71 66 64 60 63 64 65 66 65 64 60 61 61 62 61 59 61 58 56 56
61 61 61 61 61 62 62 62 62 62 63 64 64 70 69 68 77 77 76 73 74 76 72 73 74 67 67 62 65 63 57 62 63 64 61 61 56 58 62 61 59 58 55 55 56
61 61 60 60 61 61 61 62 62 61 63 64 64 69 64 73 75 74 76 73 75 75 74 73 72 68 64 64 63 57 56 50 61 63 59 57 50 61 60 58 56 56 54 54 54
61 60 60 60 60 60 61 61 61 62 63 64 66 66 63 69 70 75 75 72 72 72 70 76 69 63 61 55 52 55 47 52 54 62 58 55 52 57 60 59 56 55 55 55 53
60 60 60 60 60 60 60 61 63 62 64 69 70 60 66 64 67 71 71 72 68 66 65 64 61 55 55 53 44 49 48 54 51 57 57 53 52 57 58 58 57 55 55 53 53
60 60 60 60 60 61 60 61 59 57 61 62 63 65 66 65 68 66 70 68 68 63 55 59 51 48 55 58 60 57 53 51 55 57 54 54 55 60 58 56 55 55 54 53 52
60 60 60 60 60 60 61 61 59 60 54 64 64 66 68 67 60 63 68 61 59 53 58 51 47 58 62 61 57 56 52 50 56 57 52 53 53 59 58 57 58 59 54 53 49
60 60 60 60 60 59 60 62 67 65 54 62 65 63 63 64 61 59 63 61 56 54 55 51 56 61 59 55 54 53 50 50 51 52 51 47 46 53 59 60 59 59 57 55 49
59 59 59 60 56 61 57 65 67 65 48 56 58 62 62 63 57 65 65 61 57 53 55 54 61 56 55 53 55 48 56 55 52 46 39 48 35 48 55 57 56 57 53 51 50
58 58 59 60 62 57 63 65 66 60 32 58 57 64 62 59 57 54 61 58 53 53 55 51 51 50 50 53 57 50 54 51 48 44 40 41 39 45 54 54 55 54 50 50 50
58 58 58 57 59 63 64 63 60 45 33 50 52 51 52 56 53 54 53 58 57 54 53 52 53 53 53 52 53 54 50 47 44 42 31 42 42 41 51 54 55 52 51 50 49
57 57 56 60 54 63 63 56 38 33 57 49 46 50 51 49 49 51 48 46 47 42 43 48 49 52 53 47 49 50 44 33 29 27 29 42 39 46 53 53 55 52 51 50 49
57 57 57 59 62 59 56 45 30 42 48 55 53 50 46 49 47 48 46 43 49 50 47 41 39 49 52 52 46 44 46 33 27 27 30 34 32 43 48 49 51 55 53 52 49
57 56 56 58 59 56 49 35 35 44 52 52 50 45 44 47 46 45 45 46 51 52 46 46 44 51 51 53 54 44 39 50 36 26 26 36 41 50 45 43 44 47 49 49 48
53 53 54 60 59 53 45 37 40 52 56 55 46 50 42 44 42 43 43 50 51 55 57 52 43 47 45 50 49 46 49 36 35 22 23 34 38 42 39 43 42 45 47 48 48
51 46 55 61 56 48 39 39 45 55 57 51 50 51 52 46 44 42 46 51 55 54 57 52 45 38 44 41 42 40 39 42 43 35 27 27 37 50 50 49 44 46 48 48 47
49 41 57 58 45 46 42 45 50 51 56 55 55 53 53 53 45 44 44 51 58 56 48 52 46 33 38 46 47 47 44 44 33 32 35 31 40 49 48 50 48 47 48 48 48
44 46 56 55 41 42 45 45 49 50 51 52 51 56 58 53 47 48 49 56 57 53 48 50 40 31 33 38 41 40 44 47 47 35 37 30 37 45 45 46 47 46 46 48 47
43 39 46 49 48 45 43 43 42 51 50 54 53 53 51 50 55 47 48 51 54 54 51 53 42 38 37 40 43 35 40 44 44 35 35 39 43 40 43 43 45 45 46 46 47
43 41 45 39 42 44 45 44 41 41 49 52 49 48 47 43 46 48 50 45 47 48 50 50 38 42 45 48 44 39 38 42 40 43 38 43 44 51 48 45 48 47 46 46 46
39 40 42 41 45 43 42 40 40 43 45 43 44 47 48 43 44 44 49 49 44 43 44 44 37 41 39 41 41 39 42 41 42 43 45 46 44 52 54 52 46 47 46 45 45
46 44 41 40 39 38 37 40 40 44 46 49 48 47 46 48 54 55 54 51 49 44 39 38 35 33 33 38 37 32 37 41 43 45 45 39 47 51 50 47 46 46 46 45 45
MSLP
1018.03 1018.12 1018.12 1018.19 1018.10 1018.01 1017.92 1017.81 1017.71 1017.50 1017.18 1016.86 1016.65 1016.41 1016.10 1015.77 1015.08 1015.10 1014.50 1014.64 1014.35 1014.24 1014.22 1013.57 1013.20 1012.90 1012.72 1012.79 1013.00 1012.96 1012.95 1012.33 1011.89 1011.93 1012.41 1012.78 1013.15 1013.56 1013.90 1014.45 1015.60 1016.59 1017.45 1018.33 1018.51
1018.28 1018.29 1018.26 1018.27 1018.28 1018.16 1018.05 1017.89 1017.71 1017.39 1017.13 1016.88 1016.65 1016.39 1016.07 1015.79 1015.21 1014.64 1014.69 1014.40 1014.29 1014.29 1014.22 1013.67 1013.05 1012.92 1012.74 1012.93 1013.01 1013.01 1012.92 1012.66 1012.32 1012.21 1012.53 1013.02 1013.25 1013.80 1014.33 1015.05 1016.42 1017.46 1018.16 1018.45 1018.62
1018.38 1018.41 1018.34 1018.40 1018.34 1018.22 1018.05 1017.89 1017.62 1017.46 1017.17 1017.01 1016.68 1016.26 1015.95 1015.84 1015.30 1014.71 1014.52 1014.43 1014.44 1014.44 1014.14 1013.75 1013.34 1013.09 1012.85 1013.09 1013.11 1013.09 1013.20 1013.05 1013.02 1013.16 1013.09 1013.37 1013.75 1013.83 1014.65 1015.58 1016.58 1017.16 1018.24 1018.79 1019.16
1018.40 1018.50 1018.41 1018.36 1018.30 1018.17 1018.09 1017.99 1017.79 1017.48 1017.28 1016.95 1016.68 1016.16 1015.70 1015.51 1015.43 1014.77 1014.59 1014.48 1014.55 1014.47 1014.04 1013.65 1013.45 1013.19 1013.13 1013.20 1013.38 1013.77 1013.46 1013.53 1013.64 1013.97 1013.92 1014.01 1014.06 1014.59 1015.17 1016.63 1017.19 1017.63 1018.27 1019.00 1019.67
1018.40 1018.50 1018.51 1018.42 1018.34 1018.34 1018.22 1018.09 1017.83 1017.56 1017.27 1016.92 1016.57 1016.19 1015.47 1015.28 1014.64 1014.60 1014.60 1014.51 1014.42 1014.32 1014.00 1013.70 1013.52 1013.31 1013.36 1013.33 1013.74 1013.80 1013.72 1014.01 1014.16 1014.49 1014.55 1014.66 1014.83 1015.09 1015.85 1016.85 1017.75 1018.36 1018.82 1019.62 1020.16
1018.34 1018.48 1018.57 1018.48 1018.37 1018.38 1018.27 1018.14 1017.86 1017.54 1017.27 1016.89 1016.52 1016.21 1015.99 1015.20 1014.36 1014.33 1014.47 1014.58 1014.28 1014.25 1014.04 1014.00 1013.81 1013.76 1013.76 1013.83 1014.18 1014.25 1014.19 1014.25 1014.44 1014.72 1014.87 1015.20 1015.26 1015.56 1015.97 1016.93 1018.04 1018.74 1019.35 1019.99 1020.42
1018.08 1018.30 1018.40 1018.39 1018.32 1018.18 1018.16 1018.05 1017.89 1017.60 1017.26 1016.88 1016.63 1016.22 1015.53 1014.68 1014.11 1014.36 1014.39 1014.47 1014.49 1014.35 1014.21 1014.27 1014.22 1014.19 1014.15 1014.21 1014.59 1014.63 1014.75 1014.52 1014.49 1014.84 1015.15 1015.46 1015.76 1015.47 1016.27 1017.07 1018.12 1018.86 1019.58 1020.25 1020.62
1017.86 1018.08 1018.23 1018.19 1018.20 1018.11 1017.98 1017.92 1017.80 1017.60 1017.25 1016.85 1016.60 1016.21 1015.21 1014.55 1014.29 1014.48 1014.42 1014.58 1014.65 1014.62 1014.53 1014.60 1014.52 1014.51 1014.65 1014.87 1014.91 1014.88 1014.87 1014.71 1013.86 1014.68 1015.67 1016.09 1015.57 1015.08 1016.16 1017.19 1018.12 1018.92 1019.62 1020.28 1020.81
1017.66 1017.90 1018.10 1018.12 1018.07 1018.02 1017.90 1017.69 1017.50 1017.38 1017.13 1016.80 1016.39 1016.09 1015.08 1014.75 1014.56 1014.26 1014.26 1014.35 1014.72 1014.87 1014.97 1014.88 1014.75 1014.87 1015.22 1015.22 1015.12 1014.83 1014.71 1014.57 1014.63 1014.76 1015.69 1016.37 1015.96 1016.06 1016.45 1017.14 1017.97 1018.58 1019.39 1019.94 1020.67
1017.27 1017.68 1017.88 1018.04 1018.02 1017.96 1017.78 1017.44 1017.00 1017.16 1016.83 1016.44 1016.17 1016.29 1014.80 1014.62 1014.65 1014.55 1014.58 1014.52 1014.72 1015.09 1015.29 1015.25 1015.17 1015.28 1015.33 1015.29 1014.96 1014.55 1014.76 1014.43 1014.44 1014.99 1015.45 1016.14 1015.98 1016.21 1016.51 1016.94 1017.45 1018.01 1018.80 1019.65 1020.43
1016.77 1017.29 1017.63 1017.81 1017.88 1017.90 1017.81 1017.35 1017.29 1017.07 1016.42 1015.01 1014.49 1014.03 1014.20 1014.90 1014.83 1014.77 1014.68 1014.80 1014.89 1015.26 1015.37 1015.39 1015.43 1014.91 1014.77 1014.83 1014.52 1014.35 1014.57 1014.63 1014.16 1014.76 1015.28 1015.45 1015.46 1015.33 1015.71 1016.43 1016.84 1017.28 1018.03 1019.14 1020.08
1016.24 1016.86 1017.21 1017.54 1017.75 1017.84 1017.76 1016.68 1016.41 1016.63 1015.67 1014.29 1013.90 1013.79 1013.90 1014.21 1014.66 1014.80 1014.82 1014.99 1015.06 1015.09 1015.24 1015.73 1014.95 1014.47 1014.47 1014.36 1014.52 1014.59 1014.82 1014.90 1014.71 1015.04 1015.50 1015.36 1015.03 1014.59 1014.75 1014.92 1015.33 1016.07 1017.04 1018.30 1019.80
1015.76 1016.40 1016.70 1017.20 1017.52 1017.84 1017.21 1016.33 1015.95 1015.92 1015.67 1013.18 1012.61 1012.56 1013.15 1013.93 1013.77 1014.21 1014.86 1014.56 1014.72 1014.99 1014.84 1014.63 1014.18 1013.86 1014.33 1014.45 1014.69 1014.70 1014.90 1015.11 1015.36 1015.59 1015.80 1015.93 1015.09 1014.41 1013.66 1013.61 1014.34 1015.10 1016.10 1017.40 1018.94
1014.80 1015.49 1016.10 1016.71 1017.78 1016.91 1016.59 1015.88 1015.83 1015.98 1015.38 1012.14 1011.53 1011.01 1012.06 1013.12 1013.38 1013.24 1013.69 1014.01 1014.50 1014.49 1014.76 1014.41 1014.07 1014.35 1014.33 1014.47 1014.91 1015.10 1014.78 1015.21 1015.72 1016.34 1016.43 1016.09 1014.82 1013.72 1013.03 1013.00 1013.60 1014.31 1015.42 1016.79 1018.35
1013.88 1014.70 1015.07 1015.45 1015.13 1015.94 1015.15 1015.36 1015.69 1016.10 1015.04 1010.62 1011.03 1011.72 1011.64 1012.39 1012.56 1013.73 1013.81 1013.96 1013.83 1014.03 1014.13 1013.76 1013.87 1014.25 1014.41 1014.26 1014.81 1015.28 1015.24 1015.60 1016.19 1016.78 1016.94 1016.75 1016.01 1012.63 1012.47 1012.56 1012.69 1013.42 1014.96 1016.36 1017.74
1013.50 1013.89 1014.48 1015.08 1015.18 1015.10 1014.73 1015.38 1015.93 1016.23 1012.46 1010.75 1011.47 1011.80 1012.36 1012.49 1013.25 1014.15 1014.36 1014.25 1013.88 1013.97 1013.89 1013.97 1014.22 1014.18 1014.19 1014.78 1014.92 1015.47 1016.21 1016.78 1017.29 1017.75 1017.23 1016.56 1015.94 1012.30 1011.82 1011.18 1011.43 1013.15 1014.67 1015.99 1017.53
1013.31 1013.40 1013.10 1013.65 1013.79 1014.66 1014.69 1015.40 1016.46 1014.53 1009.64 1009.76 1010.71 1011.47 1011.80 1012.26 1013.34 1013.80 1014.18 1014.14 1013.53 1014.05 1013.79 1014.25 1014.11 1014.24 1014.46 1015.17 1015.55 1015.67 1016.69 1017.57 1018.25 1018.60 1016.87 1015.68 1015.11 1011.99 1010.99 1010.72 1011.21 1012.33 1014.04 1015.66 1017.23
1012.91 1012.90 1012.49 1013.04 1013.62 1014.12 1014.79 1014.86 1014.09 1011.27 1009.59 1008.56 1009.28 1010.59 1011.15 1011.72 1012.81 1013.50 1013.85 1013.76 1013.22 1012.61 1012.60 1013.22 1013.33 1013.37 1013.94 1013.59 1014.70 1015.82 1016.13 1017.13 1017.69 1018.07 1017.12 1016.01 1014.00 1011.71 1011.34 1011.33 1011.36 1011.95 1013.60 1015.37 1016.89
1012.58 1012.60 1012.08 1012.14 1013.05 1013.67 1013.57 1012.22 1011.14 1008.57 1008.46 1009.30 1009.78 1010.18 1010.71 1011.35 1011.94 1013.06 1012.93 1011.90 1011.17 1011.43 1011.57 1011.63 1012.23 1012.26 1013.03 1013.76 1014.38 1015.77 1016.13 1015.67 1017.20 1018.07 1017.62 1015.14 1013.03 1011.57 1011.68 1012.02 1012.42 1012.92 1014.03 1015.18 1016.61
1012.19 1012.03 1010.67 1010.89 1012.12 1012.56 1011.50 1010.64 1008.98 1007.95 1007.27 1007.53 1007.83 1008.31 1009.13 1010.42 1011.49 1011.84 1011.71 1009.83 1010.02 1009.96 1010.22 1010.57 1011.70 1012.78 1013.89 1014.14 1014.50 1014.95 1014.98 1016.31 1017.41 1018.17 1016.73 1013.84 1012.27 1011.04 1011.56 1011.82 1012.65 1013.13 1013.71 1014.82 1016.16
1012.09 1011.37 1009.26 1010.00 1011.41 1010.68 1009.33 1009.16 1007.77 1007.97 1007.39 1007.56 1006.90 1007.31 1007.46 1008.83 1010.06 1010.18 1009.09 1008.23 1008.49 1009.04 1010.16 1010.84 1011.55 1013.84 1014.28 1014.05 1013.54 1014.92 1014.86 1015.17 1015.70 1016.24 1015.36 1013.56 1010.49 1008.88 1009.22 1010.01 1011.25 1012.42 1013.40 1014.33 1015.47
1011.49 1010.27 1008.80 1009.65 1010.01 1008.69 1008.53 1007.28 1008.45 1007.85 1007.33 1006.77 1006.19 1006.30 1006.35 1007.27 1008.24 1008.44 1007.91 1007.19 1007.18 1008.00 1009.47 1009.86 1011.52 1012.92 1012.96 1012.61 1012.87 1013.02 1013.56 1014.26 1014.87 1015.11 1014.21 1013.45 1007.89 1008.96 1009.15 1009.17 1010.40 1011.66 1012.68 1013.76 1014.86
1010.60 1009.50 1008.63 1008.60 1007.86 1007.73 1008.07 1007.82 1008.11 1007.35 1006.74 1006.59 1006.03 1005.50 1006.04 1006.10 1006.73 1006.53 1006.65 1006.71 1007.01 1007.69 1008.33 1009.50 1011.16 1012.63 1012.87 1013.42 1013.34 1013.00 1012.74 1012.90 1013.55 1013.64 1011.67 1013.40 1007.65 1009.33 1009.55 1009.66 1010.30 1011.39 1012.41 1013.38 1014.50
1011.06 1009.20 1008.46 1008.35 1006.70 1007.21 1007.31 1006.95 1007.13 1006.84 1006.62 1006.41 1005.81 1006.03 1005.85 1005.80 1005.48 1005.35 1005.97 1006.43 1006.68 1007.44 1008.27 1008.79 1010.13 1010.34 1009.98 1010.08 1010.81 1012.12 1011.85 1012.01 1012.55 1012.06 1011.63 1009.01 1008.98 1009.46 1009.64 1010.20 1010.77 1011.19 1011.92 1012.93 1013.90
1010.36 1008.63 1007.54 1006.80 1006.90 1006.77 1006.81 1006.29 1006.22 1006.25 1005.99 1005.97 1005.64 1005.69 1006.00 1005.96 1005.85 1004.83 1006.01 1007.06 1007.40 1007.88 1008.61 1009.06 1009.72 1010.09 1009.29 1009.73 1010.19 1010.55 1010.61 1011.01 1010.91 1009.39 1010.61 1006.46 1008.45 1008.24 1008.89 1009.55 1009.82 1010.37 1011.64 1012.57 1013.39
1009.34 1008.73 1008.42 1007.54 1006.88 1006.70 1006.44 1005.79 1005.92 1005.86 1005.78 1005.11 1005.00 1005.00 1005.92 1005.34 1004.91 1004.59 1005.52 1006.45 1006.98 1008.36 1008.93 1009.28 1009.24 1009.80 1009.19 1009.56 1009.96 1010.07 1009.91 1009.64 1009.76 1009.55 1009.15 1007.90 1005.92 1007.54 1007.40 1007.99 1009.21 1010.10 1011.12 1011.90 1012.48
1008.55 1008.81 1008.84 1007.58 1007.15 1006.69 1006.02 1005.89 1005.97 1006.08 1005.49 1004.89 1004.95 1005.22 1004.65 1003.87 1003.95 1004.72 1005.15 1005.82 1006.30 1007.45 1008.84 1009.76 1010.22 1010.57 1009.14 1009.88 1010.34 1009.79 1006.29 1008.63 1008.25 1008.16 1007.91 1007.50 1003.97 1007.44 1007.76 1008.23 1008.76 1009.62 1010.56 1011.50 1012.38
Wind_Speed
2 3 4 5 5 5 6 7 8 9 11 11 13 12 11 12 13 4 2 2 3 5 6 5 5 2 5 3 2 2 2 3 2 1 6 7 5 1 1 6 6 6 5 5 3
2 3 4 4 5 5 6 7 8 10 12 12 13 11 11 12 4 6 1 3 4 1 4 5 2 1 2 1 1 1 2 7 7 7 5 8 6 9 4 7 4 7 7 5 6
3 3 4 5 6 6 7 8 8 10 11 12 13 12 11 10 4 4 3 2 1 3 6 5 6 3 2 2 2 1 2 5 5 8 9 6 1 2 3 5 6 9 9 6 8
5 6 5 6 6 7 7 8 9 9 12 13 14 14 13 4 3 3 1 1 2 6 6 2 4 3 2 3 3 3 2 5 4 3 3 4 2 2 5 4 8 10 9 7 9
5 5 6 6 7 8 7 8 9 10 11 13 12 13 6 4 1 4 2 2 4 2 4 2 4 2 4 3 1 4 3 2 4 3 3 5 3 5 5 9 9 7 8 8 7
6 6 6 6 6 7 8 8 9 10 12 11 11 14 4 5 3 4 4 1 5 4 2 3 4 5 5 2 1 5 3 4 6 5 3 2 5 4 4 11 9 7 8 7 7
8 7 7 6 6 6 7 8 9 10 10 9 10 5 4 4 1 5 3 2 3 5 1 3 5 3 4 2 3 1 4 7 8 6 2 4 7 10 9 9 10 8 7 7 6
9 10 8 7 6 6 6 7 8 10 9 8 9 4 6 2 3 2 4 4 1 1 3 3 3 2 3 2 3 3 3 3 3 11 4 4 7 3 11 10 9 9 8 7 5
10 10 8 8 7 6 6 7 8 10 8 9 4 3 5 1 3 4 3 4 5 4 3 1 2 1 2 3 4 5 5 8 4 8 6 8 5 5 7 8 9 9 9 8 7
11 10 9 8 7 6 7 7 6 7 6 4 3 3 6 2 4 3 1 3 3 6 3 3 3 3 3 5 6 6 5 6 6 8 6 7 11 6 9 9 10 10 9 8 8
12 11 10 8 7 6 7 5 3 3 5 8 7 3 4 4 1 4 3 4 4 4 6 6 4 8 12 11 11 9 7 8 4 3 5 9 10 10 13 9 10 10 10 9 9
14 13 11 9 6 5 6 4 4 0 7 13 13 7 5 5 4 6 2 8 6 7 8 3 10 12 9 9 6 9 9 10 8 7 3 7 11 9 13 15 18 15 11 11 9
15 15 13 10 7 3 7 4 1 3 5 7 14 9 7 8 7 14 9 5 6 8 10 11 3 4 13 5 5 7 8 7 8 4 4 6 9 14 11 14 14 10 10 10 15
20 18 14 11 4 6 7 9 1 3 5 8 9 8 9 7 7 4 15 5 6 11 8 10 13 3 6 8 8 8 7 11 6 3 5 7 7 7 9 14 17 15 10 11 13
21 20 19 19 4 8 4 8 6 1 7 1 10 3 8 12 11 0 3 2 9 9 8 5 7 9 8 6 8 4 5 0 3 6 5 5 9 7 13 17 17 16 10 10 12
19 22 22 12 6 7 6 7 2 5 16 4 5 7 8 9 4 4 2 2 1 5 5 4 2 4 5 5 1 9 5 2 1 1 7 13 14 6 13 16 9 12 13 12 13
11 19 18 10 10 10 9 7 7 10 5 11 8 9 9 9 6 6 10 10 10 8 10 6 9 4 4 5 4 5 6 2 3 1 9 1 11 15 5 3 6 18 17 15 15
12 12 17 11 8 11 8 10 8 20 27 8 7 9 10 9 7 8 10 10 14 10 4 12 6 18 10 13 8 9 10 7 8 6 5 3 9 8 0 6 4 13 16 16 16
9 5 8 11 14 10 9 13 16 16 16 17 8 6 9 7 8 8 10 11 13 21 15 7 8 6 6 5 8 6 10 10 5 1 2 7 8 8 5 3 1 10 15 17 17
2 3 7 11 15 11 16 17 17 24 7 30 22 13 14 13 10 14 15 9 11 24 11 2 3 2 3 5 4 4 5 5 2 3 7 6 11 11 6 12 8 12 17 17 17
3 4 4 15 11 10 15 15 21 16 21 20 17 23 16 12 14 11 11 5 19 16 22 4 2 1 6 9 13 5 4 5 5 5 5 5 9 4 14 15 19 15 17 18 19
3 6 5 13 12 4 16 27 13 15 10 17 12 25 19 18 15 16 15 8 16 17 21 11 1 6 10 4 0 5 8 10 6 6 8 2 22 4 6 10 14 16 16 17 18
4 6 4 11 13 15 6 25 24 17 18 14 16 17 16 18 19 20 11 7 14 18 19 13 6 1 5 2 2 7 9 16 13 2 21 6 15 3 5 5 9 13 14 16 16
3 5 6 8 7 15 20 23 22 21 23 26 17 15 8 14 20 7 15 6 16 15 10 14 6 12 18 7 9 8 12 18 19 13 6 28 17 3 5 5 7 10 15 15 17
5 6 3 5 13 19 17 9 22 18 28 22 21 20 20 11 20 25 10 2 5 7 10 13 12 12 21 18 6 6 10 20 25 28 17 26 25 20 10 13 16 10 12 15 16
3 5 2 5 11 9 13 11 15 19 15 29 25 28 28 23 24 18 14 16 8 5 8 1 9 12 23 12 15 20 15 18 23 24 28 29 36 5 11 12 9 13 15 16 18
3 1 1 4 6 6 5 4 5 12 20 27 29 26 28 36 30 23 10 7 6 13 10 7 4 6 21 8 13 12 37 23 24 26 23 28 36 11 11 10 11 12 13 13 12
Wind_Direction
39 17 11 5 12 10 4 0 356 352 351 353 350 344 339 333 309 227 306 357 353 340 330 285 251 281 255 128 283 275 310 253 240 255 122 131 143 11 36 115 58 32 62 102 137
329 347 349 349 349 352 354 353 351 353 348 346 344 338 335 337 288 270 39 19 356 356 255 252 234 192 197 153 255 280 302 360 360 38 88 155 207 149 181 130 112 102 98 105 81
294 306 324 332 337 342 346 346 349 347 346 339 335 332 328 323 277 68 358 26 46 281 277 308 299 288 259 351 111 9 310 357 39 33 357 114 260 43 220 203 40 163 125 108 89
287 299 310 321 327 335 338 339 339 344 341 338 331 327 322 252 336 81 27 104 248 294 259 215 250 233 270 208 81 296 66 5 50 44 345 125 70 173 237 101 74 69 104 110 84
272 284 296 310 318 319 324 330 335 339 338 335 332 331 320 253 70 134 183 147 231 247 254 255 275 324 266 64 40 228 126 69 82 119 289 46 272 236 132 121 98 99 104 100 90
245 258 272 282 297 309 319 325 332 337 336 335 336 323 259 260 135 107 96 130 280 249 167 269 358 9 299 347 281 11 356 245 159 204 189 227 256 132 161 134 129 149 119 102 105
239 245 255 265 281 297 311 320 328 330 330 330 338 316 264 261 38 125 162 37 354 320 264 42 346 289 11 188 83 348 292 223 220 206 264 154 275 231 151 147 150 162 129 126 129
253 250 254 258 271 287 301 310 318 318 313 311 316 287 267 12 28 185 166 123 154 97 13 29 282 19 340 111 212 237 196 240 309 161 157 169 267 262 134 154 168 168 155 154 139
238 249 247 258 266 279 291 295 291 295 289 293 276 252 258 191 191 162 228 152 116 106 40 185 262 304 134 225 257 193 256 217 161 174 128 188 276 159 153 179 180 174 170 174 146
217 240 236 250 260 276 280 265 285 301 237 247 260 310 172 152 106 155 31 170 141 142 126 202 210 204 208 196 217 217 212 242 244 202 185 192 256 184 187 198 192 184 177 173 169
207 221 228 236 249 268 287 243 229 190 230 206 181 237 129 85 231 203 191 145 153 211 189 204 204 206 212 216 248 291 304 297 287 141 190 223 244 230 191 202 217 193 177 178 170
201 207 207 216 228 242 272 253 93 133 298 228 256 251 129 193 136 176 239 177 189 200 209 104 234 237 234 244 249 238 261 265 286 127 190 267 265 262 182 205 204 204 180 172 138
203 201 192 199 195 196 240 223 81 331 255 240 206 202 175 167 207 175 182 211 189 209 202 206 193 222 228 224 230 244 237 250 243 152 223 295 272 254 250 212 204 213 177 167 157
202 195 184 162 168 207 220 229 176 320 269 234 191 224 142 168 229 152 194 166 189 212 220 234 246 200 210 212 187 248 220 230 257 312 240 146 279 262 268 240 197 200 176 157 156
204 193 180 167 149 193 199 169 175 260 281 358 134 6 150 178 132 173 14 77 188 187 181 211 166 163 198 189 191 215 30 95 234 248 302 266 272 250 222 253 216 191 172 161 159
210 194 186 188 240 235 138 147 124 176 237 164 121 146 148 225 77 102 128 337 342 220 246 244 336 202 198 64 21 128 90 90 34 200 255 227 227 223 236 227 217 179 179 165 156
251 211 181 174 201 216 138 149 160 218 193 195 163 164 198 170 134 165 174 184 176 173 206 208 215 173 154 103 16 170 134 255 298 240 241 287 226 245 253 315 201 181 177 168 161
245 239 203 202 209 141 175 155 202 225 227 85 119 155 183 143 176 190 168 194 230 230 160 195 223 173 190 207 160 188 181 161 232 212 263 332 238 245 330 37 14 161 165 164 164
243 246 222 203 182 172 188 200 196 219 201 242 123 171 196 173 138 167 204 216 196 202 193 190 228 99 133 191 156 182 213 227 355 53 337 217 261 283 165 157 41 149 161 171 170
230 252 226 174 189 186 207 200 234 217 294 202 214 181 179 174 182 186 181 207 220 195 215 269 212 1 61 73 320 196 163 105 195 232 247 248 248 242 225 219 190 187 180 174 171
226 213 224 168 179 201 216 218 232 233 218 243 239 228 226 176 188 198 214 226 192 176 193 175 159 115 121 204 177 137 215 220 166 186 220 279 257 300 200 196 194 193 184 181 178
238 232 185 165 205 210 219 222 220 226 253 244 255 245 247 219 193 197 216 198 179 156 187 183 157 174 207 122 107 223 183 192 166 226 236 210 255 12 6 185 175 185 183 180 183
240 253 187 193 220 219 227 237 239 220 217 237 241 237 238 225 231 205 205 220 174 169 171 166 183 144 315 93 19 199 199 207 218 69 231 194 256 333 10 73 168 169 179 182 178
265 243 204 225 244 231 224 232 233 224 240 221 229 248 232 237 234 214 212 193 171 182 183 153 158 195 227 221 144 194 201 208 202 228 186 233 248 218 218 195 182 186 180 178 180
221 241 258 210 223 231 242 236 229 226 216 212 228 216 226 231 240 237 192 65 16 155 172 177 211 220 241 238 230 188 197 206 210 223 212 252 242 239 221 201 208 183 169 174 182
238 229 195 290 236 252 236 210 232 230 218 219 223 217 219 225 227 218 217 211 187 173 169 290 236 210 247 224 239 252 240 211 222 232 240 252 255 200 230 202 153 178 174 184 186
180 209 250 204 227 234 185 203 252 253 238 232 224 226 222 222 224 230 239 250 199 171 175 146 134 159 247 204 242 249 233 229 228 225 221 237 249 211 231 183 183 177 173 184 193